Regional Weather Roundup
Issued by NWS Goodland, KS

Home | Current Version | Previous Version | Text Only | Print | Product List | Glossary On
Versions: 1 2 3 4 5 6 7 8 9 10 11 12 13 14 15 16 17 18 19 20 21 22 23 24 25 26 27 28 29 30 31 32 33 34 35 36 37 38 39 40 41 42 43 44 45 46 47 48 49 50
000
ASUS43 KGLD 031108
RWRGLD

GOODLAND FORECAST AREA HOURLY WEATHER ROUNDUP
NATIONAL WEATHER SERVICE GOODLAND KS
400 AM MST TUE MAR 03 2015

...OFFICIAL OBSERVATIONS...

CITY           SKY/WX    TMP DP  RH WIND       PRES   REMARKS
GOODLAND KS    CLOUDY    33  28  81 NW8       29.58R
HILL CITY KS   MOCLDY    35  31  85 W9        29.58R
IMPERIAL NEB   FOG       28  26  92 NW10      29.63R VSB 3/4 WCI  19
MCCOOK NEB     CLOUDY    30  23  75 N7        29.62R
AKRON CO       FOG       25  25 100 NW12      29.60R VSB 1/4 WCI  14
BURLINGTON CO  CLOUDY    34  28  79 SW12      29.57F
LIMON CO       MOCLDY    38  15  39 W21G29    29.60R
$$

...UNOFFICIAL OBSERVATIONS...

CITY           SKY/WX    TMP DP  RH WIND       PRES   REMARKS
COLBY KS       CLEAR     34  34 100 NW9       29.61R
GOVE KS          N/A     36  32  85 MISG        N/A
LENORA KS        N/A     26  32 100 S7          N/A
SHARON SPRINGS   N/A     37  33  85 W8G15       N/A
KIT CARSON CO    N/A     31  28  88 MISG        N/A
YUMA CO          N/A     29  27  92 N13         N/A  WCI  19
$$


USA.gov is the U.S. government's official web portal to all federal, state and local government web resources and services.